TimeCST,TemperatureF,Dew PointF,Humidity,Sea Level PressureIn,VisibilityMPH,Wind Direction,Wind SpeedMPH,Gust SpeedMPH,PrecipitationIn,Events,Conditions,WindDirDegrees,DateUTC
12:00 AM,81,76,81,29.98,12,East,6.9,,,,Partly Cloudy,90,2013-05-27 06:00:00
3:00 AM,78,76,92,29.92,12,East,5.8,,,,Partly Cloudy,90,2013-05-27 09:00:00
5:00 AM,77.0,77.0,100,29.92,6.2,ESE,3.5,-,N/A,,Mostly Cloudy,110,2013-05-27 11:00:00
6:00 AM,79,76,90,29.93,12,East,3.5,,,,Light Sandstorm,100,2013-05-27 12:00:00
6:00 AM,78.8,77.0,94,29.92,6.2,East,3.5,-,N/A,,Mostly Cloudy,100,2013-05-27 12:00:00
7:00 AM,80.6,77.0,89,29.92,6.2,East,4.6,-,N/A,,Mostly Cloudy,100,2013-05-27 13:00:00
8:00 AM,82.4,77.0,84,29.95,6.2,East,8.1,-,N/A,,Mostly Cloudy,100,2013-05-27 14:00:00
9:00 AM,86,77,69,29.95,12,East,10.4,,,,Scattered Clouds,80,2013-05-27 15:00:00
9:00 AM,86.0,77.0,74,29.95,6.2,East,10.4,-,N/A,,Mostly Cloudy,80,2013-05-27 15:00:00
10:00 AM,84.2,77.0,79,29.96,5.0,East,12.7,-,N/A,Rain-Thunderstorm,Light Thunderstorms and Rain,90,2013-05-27 16:00:00
10:15 AM,84.2,77.0,79,29.97,6.2,East,9.2,-,N/A,Thunderstorm,Thunderstorm,80,2013-05-27 16:15:00
11:00 AM,80.6,77.0,89,29.97,6.2,East,4.6,-,N/A,Rain,Light Rain Showers,80,2013-05-27 17:00:00
12:00 PM,82,76,78,29.97,12,East,4.6,,,Rain,Light Rain,100,2013-05-27 18:00:00
12:00 PM,82.4,77.0,84,29.96,6.2,East,4.6,-,N/A,Rain,Light Rain,100,2013-05-27 18:00:00
1:00 PM,82.4,77.0,84,29.94,6.2,East,4.6,-,N/A,Rain,Light Rain,90,2013-05-27 19:00:00
2:00 PM,82.4,77.0,84,29.92,6.2,East,6.9,-,N/A,Rain,Light Rain,90,2013-05-27 20:00:00
3:00 PM,83,78,80,29.89,12,East,6.9,,,Rain,Light Rain,80,2013-05-27 21:00:00
3:00 PM,82.4,78.8,89,29.89,6.2,East,6.9,-,N/A,,Mostly Cloudy,80,2013-05-27 21:00:00
4:00 PM,82.4,77.0,84,29.87,6.2,East,8.1,-,N/A,,Mostly Cloudy,80,2013-05-27 22:00:00
5:00 PM,82.4,77.0,84,29.87,6.2,East,8.1,-,N/A,,Mostly Cloudy,90,2013-05-27 23:00:00
6:00 PM,82,77,80,29.88,12,East,6.9,,,,Overcast,80,2013-05-28 00:00:00
6:00 PM,82.4,77.0,84,29.87,6.2,East,6.9,-,N/A,,Mostly Cloudy,80,2013-05-28 00:00:00
9:00 PM,79,77,90,29.92,12,SSE,4.6,,,Rain-Thunderstorm,Thunderstorms and Rain,150,2013-05-28 03:00:00